Petersburg, AK

5:29 PM AKDT on October 20, 2017 (GMT -0800)
Johnson Petersburg

Weather History for PAPG - August, 2013

Change the Weather History Date:

Thursday, August 29, 2013

  Actual Average Record
Temperature  
Mean Temperature 53 °F -  
Max Temperature 62 °F 57 °F 73 °F (2003)
Min Temperature 44 °F 46 °F 39 °F (1992)
Degree Days  
Heating Degree Days 12    
Growing Degree Days 3 (Base 50)    
Moisture  
Dew Point 48 °F    
Average Humidity 81    
Maximum Humidity 93    
Minimum Humidity 59    
Precipitation  
Precipitation 0.00 in - - ()
Sea Level Pressure  
Sea Level Pressure 29.78 in    
Wind  
Wind Speed 2 mph (ENE)    
Max Wind Speed 7 mph    
Max Gust Speed -    
Visibility 9 miles    
Events      
Averages and records for this station are not official NWS values.
T = Trace of Precipitation, MM = Missing Value Source: NWS Daily Summary

Daily Weather History Graph

Daily Weather History Graph

Search for Another Location

Airport or City:

Trip Planner

Search our weather history database for the weather conditions in past years. The results will help you decide how hot, cold, wet, or windy it might be!

Date:

Astronomy

Aug. 29, 2013 Rise Set
Actual Time 5:49 AM AKDT 7:54 PM AKDT
Civil Twilight 5:08 AM AKDT 8:35 PM AKDT
Nautical Twilight 4:15 AM AKDT 9:27 PM AKDT
Astronomical Twilight 3:12 AM AKDT 10:29 PM AKDT
Moon 11:58 PM AKDT (8/29) 4:06 PM AKDT (8/29)
Length of Visible Light 15h 27m
Length of Day
14h 05m
Last Quarter, 36% of the Moon is Illuminated
Aug 29
Last Quarter
Sep 5
New
Sep 12
First Quarter
Sep 19
Full
Sep 26
Last Quarter

Hourly Weather History & Observations

Time (AKDT) Temp. Dew Point Humidity Pressure Visibility Wind Dir Wind Speed Gust Speed Precip Events Conditions
12:16 AM 46.4 °F 44.6 °F 93% 29.86 in 10.0 mi Calm Calm - N/A   Clear
12:36 AM 48.2 °F 46.4 °F 93% 29.86 in 10.0 mi Calm Calm - N/A   Clear
12:56 AM 46.4 °F 44.6 °F 93% 29.86 in 7.0 mi Calm Calm - N/A   Clear
1:16 AM 48.2 °F 44.6 °F 87% 29.85 in 10.0 mi Calm Calm - N/A   Clear
1:36 AM 48.2 °F 44.6 °F 87% 29.85 in 10.0 mi Calm Calm - N/A   Clear
2:36 AM 46.4 °F 44.6 °F 93% 29.85 in 10.0 mi Calm Calm - N/A   Clear
2:56 AM 46.4 °F 42.8 °F 87% 29.84 in 5.0 mi Calm Calm - N/A   Clear
3:16 AM 46.4 °F 42.8 °F 87% 29.84 in 5.0 mi Calm Calm - N/A   Clear
4:16 AM 46.4 °F 44.6 °F 93% 29.83 in 1.2 mi Calm Calm - N/A   Mostly Cloudy
4:36 AM 46.4 °F 44.6 °F 93% 29.83 in 0.2 mi Calm Calm - N/A   Overcast
4:56 AM 46.4 °F 44.6 °F 93% 29.83 in 10.0 mi Calm Calm - N/A   Scattered Clouds
5:36 AM 44.6 °F 42.8 °F 93% 29.83 in 2.5 mi Calm Calm - N/A   Clear
5:56 AM 46.4 °F 44.6 °F 93% 29.82 in 10.0 mi Calm Calm - N/A   Scattered Clouds
6:36 AM 46.4 °F 44.6 °F 93% 29.82 in 10.0 mi Calm Calm - N/A   Scattered Clouds
6:56 AM 48.2 °F 46.4 °F 93% 29.81 in 10.0 mi Calm Calm - N/A   Mostly Cloudy
7:16 AM 48.2 °F 44.6 °F 87% 29.81 in 10.0 mi Calm Calm - N/A   Mostly Cloudy
7:56 AM 51.8 °F 48.2 °F 88% 29.81 in 10.0 mi Calm Calm - N/A   Scattered Clouds
8:16 AM 51.8 °F 48.2 °F 88% 29.81 in 10.0 mi ENE 4.6 mph - N/A   Scattered Clouds
8:36 AM 51.8 °F 48.2 °F 88% 29.80 in 10.0 mi ENE 4.6 mph - N/A   Scattered Clouds
9:56 AM 51.8 °F 46.4 °F 82% 29.80 in 10.0 mi ENE 3.5 mph - N/A   Mostly Cloudy
10:16 AM 53.6 °F 48.2 °F 82% 29.80 in 10.0 mi NE 4.6 mph - N/A   Mostly Cloudy
10:56 AM 55.4 °F 48.2 °F 77% 29.79 in 10.0 mi NE 4.6 mph - N/A   Mostly Cloudy
11:16 AM 55.4 °F 48.2 °F 77% 29.79 in 10.0 mi NE 3.5 mph - N/A   Mostly Cloudy
11:36 AM 57.2 °F 48.2 °F 72% 29.78 in 10.0 mi East 4.6 mph - N/A   Mostly Cloudy
11:56 AM 57.2 °F 48.2 °F 72% 29.78 in 10.0 mi ENE 5.8 mph - N/A   Scattered Clouds
12:36 PM 57.2 °F 46.4 °F 67% 29.77 in 10.0 mi NE 5.8 mph - N/A   Scattered Clouds
12:56 PM 59.0 °F 48.2 °F 67% 29.77 in 10.0 mi NE 6.9 mph - N/A   Scattered Clouds
1:36 PM 59.0 °F 48.2 °F 67% 29.76 in 10.0 mi ENE 4.6 mph - N/A   Scattered Clouds
1:56 PM 60.8 °F 48.2 °F 63% 29.76 in 10.0 mi ENE 4.6 mph - N/A   Scattered Clouds
2:36 PM 60.8 °F 48.2 °F 63% 29.75 in 10.0 mi NE 4.6 mph - N/A   Scattered Clouds
2:56 PM 60.8 °F 48.2 °F 63% 29.75 in 10.0 mi ENE 4.6 mph - N/A   Scattered Clouds
3:16 PM 62.6 °F 48.2 °F 59% 29.74 in 10.0 mi ENE 4.6 mph - N/A   Scattered Clouds
3:36 PM 62.6 °F 50.0 °F 63% 29.74 in 10.0 mi East 4.6 mph - N/A   Scattered Clouds
4:16 PM 60.8 °F 48.2 °F 63% 29.73 in 10.0 mi ENE 4.6 mph - N/A   Scattered Clouds
4:36 PM 60.8 °F 48.2 °F 63% 29.73 in 10.0 mi NE 4.6 mph - N/A   Scattered Clouds
4:56 PM 57.2 °F 48.2 °F 72% 29.73 in 10.0 mi NE 5.8 mph - N/A   Scattered Clouds
5:36 PM 57.2 °F 48.2 °F 72% 29.72 in 10.0 mi ENE 5.8 mph - N/A   Scattered Clouds
6:16 PM 57.2 °F 48.2 °F 72% 29.72 in 10.0 mi ENE 4.6 mph - N/A   Mostly Cloudy
6:36 PM 57.2 °F 48.2 °F 72% 29.72 in 10.0 mi ENE 3.5 mph - N/A   Mostly Cloudy
6:56 PM 57.2 °F 48.2 °F 72% 29.72 in 10.0 mi East 4.6 mph - N/A   Mostly Cloudy
7:16 PM 55.4 °F 48.2 °F 77% 29.72 in 10.0 mi ENE 4.6 mph - N/A   Mostly Cloudy
7:36 PM 55.4 °F 48.2 °F 77% 29.72 in 10.0 mi Calm Calm - N/A   Mostly Cloudy
7:56 PM 55.4 °F 48.2 °F 77% 29.72 in 10.0 mi ENE 3.5 mph - N/A   Mostly Cloudy
8:16 PM 55.4 °F 48.2 °F 77% 29.73 in 10.0 mi Calm Calm - N/A   Mostly Cloudy
8:36 PM 55.4 °F 51.8 °F 88% 29.73 in 10.0 mi Calm Calm - N/A   Mostly Cloudy
9:56 PM 57.2 °F 51.8 °F 82% 29.75 in 10.0 mi Calm Calm - N/A   Overcast
10:16 PM 55.4 °F 51.8 °F 88% 29.75 in 10.0 mi Calm Calm - N/A   Overcast
10:36 PM 55.4 °F 51.8 °F 88% 29.75 in 10.0 mi Calm Calm - N/A   Overcast
10:56 PM 55.4 °F 51.8 °F 88% 29.75 in 10.0 mi Calm Calm - N/A   Overcast
11:16 PM 55.4 °F 51.8 °F 88% 29.76 in 10.0 mi Calm Calm - N/A   Overcast
11:36 PM 55.4 °F 51.8 °F 88% 29.76 in 10.0 mi East 4.6 mph - N/A   Overcast
11:56 PM 51.8 °F 48.2 °F 88% 29.77 in 10.0 mi Calm Calm - N/A   Overcast